Regional Weather Roundup
Issued by NWS

Home | Current Version | Previous Version | Graphics & Text | Print | Product List | Glossary On
Versions: 1 2 3 4 5 6 7 8 9 10 11 12 13 14 15 16 17 18 19 20 21 22 23 24 25 26 27 28 29 30 31 32 33 34 35 36 37 38 39 40 41 42 43 44 45 46 47 48 49 50
000
ASUS43 KLSX 270959
RWRMO

WEATHER SUMMARY FOR MISSOURI
NATIONAL WEATHER SERVICE SPRINGFIELD MO
400 AM CST FRI FEB 27 2015

NOTE: "FAIR" INDICATES FEW OR NO CLOUDS BELOW 12,000 FEET WITH NO
       SIGNIFICANT WEATHER AND/OR OBSTRUCTIONS TO VISIBILITY.
       CURRENT SKY AND/OR WEATHER CONDITIONS ARE NOT AVAILABLE FOR
       CHILLICOTHE AND FARMINGTON.

MOZ001>031-035>038-043-044-053-054-271100-
...NORTHERN AND WESTERN MISSOURI...

CITY           SKY/WX    TMP DP  RH WIND       PRES   REMARKS
KANSAS CTY INT PTCLDY     2  -4  76 N5        30.58S WCI  -8
KANSAS C DTWN  CLEAR      5  -4  66 N5        30.62S WCI  -4
LEE`S SUMMIT   CLEAR      3  -5  69 N3        30.59S
ST JOSEPH      CLEAR      1  -5  75 CALM      30.62S
CHILLICOTHE      N/A      1  -6  72 CALM      30.61S
KIRKSVILLE     CLEAR     -3  -7  82 NW3       30.56F

$$
MOZ066>068-077>081-088>096-101>105-271100-
...SOUTHWEST MISSOURI...

CITY           SKY/WX    TMP DP  RH WIND       PRES   REMARKS
SPRINGFIELD    CLEAR      9   0  67 N10       30.50F WCI  -5
JOPLIN         CLEAR     10   3  73 N7        30.55F WCI  -1

$$
MOZ032>034-039>042-045>050-055>058-069>072-271100-
...CENTRAL MISSOURI...

CITY           SKY/WX    TMP DP  RH WIND       PRES   REMARKS
COLUMBIA       CLEAR      3  -4  72 N8        30.57R WCI -10
JEFFERSON CITY CLEAR      5  -4  66 N7        30.61R WCI  -7
ROLLA          CLEAR      4  -4  69 N6        30.51R WCI  -7
SEDALIA        FAIR       5  -3  69 N6        30.60R WCI  -6
OSAGE BEACH    CLEAR      5   0  78 CALM      30.56R

$$
MOZ051-052-059>065-271100-
...EAST CENTRAL MISSOURI...

CITY           SKY/WX    TMP DP  RH WIND       PRES   REMARKS
ST LOUIS INTL  CLEAR      4  -5  66 NW5       30.57S WCI  -5
SPIRIT OF STL  CLEAR      5  -5  63 NW7       30.59R WCI  -7
ST CHARLES     CLEAR      3  -6  66 NW7       30.59R WCI  -9

$$
MOZ072>076-082>087-097>100-106>115-271100-
...SOUTH CENTRAL AND SOUTHEAST MISSOURI...

CITY           SKY/WX    TMP DP  RH WIND       PRES   REMARKS
CAPE GIRARDEAU CLEAR     11   3  70 N13       30.56R WCI  -4
FARMINGTON     CLEAR      7   0  72 N6        30.54R WCI  -3
POPLAR BLUFF   CLEAR     14   2  58 N9        30.55R WCI   2
WEST PLAINS    CLEAR      8  -1  66 N7        30.50R WCI  -3

$$


USA.gov is the U.S. government's official web portal to all federal, state and local government web resources and services.